Weather at Hartford Brainard Airport

Public forecast

Using degrees Fahrenheit for public forecast. Weather courtesy of forecast.io.

Current aviation weather report (METAR) for Hartford Brainard Airport

Retrieved 2020/11/24 04:53 UTC (1 hour ago):

KHFD 240453Z 30010KT 10SM CLR 03/M04 A3009 RMK AO2 SLP190 T00281039 400940028

Closest aviation forecast (TAF) to Hartford Brainard Airport

Forecast is more than 12 hours old.

Closest forecast is Kaman Aerospace Corp Heliport, 7.9 nm (14.5 km) NNW. Retrieved 2017/05/24 06:18 UTC (4 years ago):

TAF HTZA 240500Z 2406/2506 22010KT 9999 BKN016 KVA1683 240550 GG HAABYMYX 240535 VTBBYPYX 240522 FTAE33 VTBB 240500 TAF VLLB 240500Z 2406/2506 27004KT 9999 SCT020 SCT05 240500Z 2406/2506 18004KT 9000 SCT020 BKN100 TEMPO 2410/2413 8000 TS SCT016 FEW023CB BKN100